Regional Weather Roundup
Issued by NWS

Home | Current Version | Previous Version | Graphics & Text | Print | Product List | Glossary On
Versions: 1 2 3 4 5 6 7 8 9 10 11 12 13 14 15 16 17 18 19 20 21 22 23 24 25 26 27 28 29 30 31 32 33 34 35 36 37 38 39 40 41 42 43 44 45 46 47 48 49 50
000
ASUS43 KDMX 271203
RWRIA

WEATHER ROUNDUP FOR IOWA
NATIONAL WEATHER SERVICE DES MOINES IA
700 AM CDT SAT AUG 27 2016

NOTE: "FAIR" INDICATES FEW OR NO CLOUDS BELOW 12,000 FEET WITH NO
SIGNIFICANT WEATHER AND/OR OBSTRUCTIONS TO VISIBILITY.

* - THESE STATIONS ARE NOT NWS STATIONS...THUS NOT UNDER NWS
QUALITY CONTROL.  THEY ALSO DO NOT REPORT WEATHER SUCH
AS PRECIPITATION OR FOG.

IAZ001>003-012>014-020>022-031>034-043>046-271300-
   NORTHWEST IOWA

CITY           SKY/WX    TMP DP  RH WIND       PRES   REMARKS
CARROLL *      FOG       63  63 100 SE3       30.02R VSB 1
CHEROKEE *     CLOUDY    61  61 100 S3        30.03R FOG
DENISON *      FOG       63  63 100 CALM      30.00R VSB 1/4
LE MARS *      CLOUDY    63  61  94 S3        30.03R
ORANGE CITY *  CLOUDY    61  61 100 S3        30.03R FOG
SHELDON *      CLOUDY    61  61 100 S6        30.01R FOG
SIOUX CITY     CLOUDY    64  62  93 CALM      30.02R FOG
6HR MIN TEMP:  64; 6HR MAX TEMP:  66; 6HR PCP: TRACE;

SPENCER        CLOUDY    60  58  92 SE5       30.03R
6HR MIN TEMP:  60; 6HR MAX TEMP:  63; 6HR PCP:  0.01;

STORM LAKE *   FOG       61  61 100 SE7       30.04R VSB 1/4
$$

IAZ055>058-069>071-079>083-090>094-271300-
   SOUTHWEST IOWA

CITY           SKY/WX    TMP DP  RH WIND       PRES   REMARKS
ATLANTIC *     FOG       64  64 100 CALM      30.03R VSB 1
AUDUBON *      FOG       63  61  94 CALM      30.03R VSB 1/4
CLARINDA *       N/A     68  68 100 MISG      30.04R FOG
COUNCIL BLFS * FOG       66  66 100 S6        30.02R VSB 1/4
CRESTON *      FOG       66  66 100 CALM      30.04R VSB<1/4
HARLAN  *      FOG       64  64 100 CALM      30.05R VSB 1/4
LAMONI         CLOUDY    67  67 100 CALM      30.02R FOG
6HR MIN TEMP:  66; 6HR MAX TEMP:  69; 6HR PCP:  0.04;

RED OAK *      FOG       68  66  94 CALM      30.02R VSB 1/2
SHENANDOAH *   CLOUDY    66 -40   1 NW7       30.03R HAZE
$$

IAZ047>049-059>061-072>074-084-271300-
   CENTRAL IOWA

CITY           SKY/WX    TMP DP  RH WIND       PRES   REMARKS
AMES           CLOUDY    62  62 100 CALM      30.02S
6HR MIN TEMP:  60; 6HR MAX TEMP:  62;

ANKENY *         N/A    N/A N/A N/A MISG        N/A
BOONE *        CLOUDY    61  59  94 E7        30.01S
CHARITON *     FOG       66  66 100 MISG      30.02R VSB 1/4
DES MOINES     CLOUDY    64  62  93 NE3       30.01R FOG
6HR MIN TEMP:  64; 6HR MAX TEMP:  65; 6HR PCP: TRACE;

GRINNELL*      CLOUDY    64  63  96 E3        30.02R FOG
KNOXVILLE *    CLOUDY    66  64  94 CALM      30.00R FOG
MARSHALLTOWN   CLOUDY    63  63 100 E3        30.02R
6HR MIN TEMP:  61; 6HR MAX TEMP:  63; 6HR PCP:  0.01;

NEWTON *       CLOUDY    64  64 100 NE3       30.01R FOG
PERRY *        CLOUDY    63  62  97 E3        30.03R
$$

IAZ004>006-015-016-023>025-035-036-271300-
   NORTH CENTRAL IOWA

CITY           SKY/WX    TMP DP  RH WIND       PRES   REMARKS
ALGONA *       CLOUDY    61  59  94 CALM      30.04R
ESTHERVILLE    CLOUDY    59  59 100 SE6       30.03R FOG
6HR MIN TEMP:  58; 6HR MAX TEMP:  61; 6HR PCP:  0.24;

FORT DODGE *   CLOUDY    61  57  88 E3        30.02S
MASON CITY     LGT RAIN  61  59  93 E7        30.05R
6HR MIN TEMP:  60; 6HR MAX TEMP:  61; 6HR PCP:  0.11;

FOREST CITY *    N/A    N/A N/A N/A MISG        N/A
WEBSTER CITY * CLOUDY    61  61 100 E8        30.00S
IOWA FALLS *   CLOUDY    62  60  93 E5        30.04S
$$

IAZ007>011-017>019-026>030-037>042-050>054-066-271300-
   NORTHEAST IOWA

CITY           SKY/WX    TMP DP  RH WIND       PRES   REMARKS
CEDAR RAPIDS   CLOUDY    65  65 100 CALM      30.01R FOG
6HR MIN TEMP:  64; 6HR MAX TEMP:  65; 6HR PCP:  0.39;

CHARLES CITY * CLOUDY    61  61 100 E9        30.04R
CLINTON *      MOCLDY    69  68  96 E6        30.04R FOG
DECORAH *      CLOUDY    61  61 100 VRB3      30.05R
DUBUQUE        CLOUDY    63  63 100 E10       30.05R FOG
6HR MIN TEMP:  63; 6HR MAX TEMP:  64; 6HR PCP:  0.54;

MONTICELLO *   CLOUDY    64  64 100 E6        30.02S
OELWEIN *      CLOUDY    63  63 100 E9G15     30.04R
WATERLOO       CLOUDY    63  61  93 E3        30.02R
6HR MIN TEMP:  60; 6HR MAX TEMP:  63; 6HR PCP:  0.02;

$$

IAZ064-065-067-068-078-271300-
   EAST CENTRAL IOWA

CITY           SKY/WX    TMP DP  RH WIND       PRES   REMARKS
DAVENPORT      CLOUDY    70  68  93 S3        30.04R
6HR MIN TEMP:  67; 6HR MAX TEMP:  70; 6HR PCP:  0.11;

IOWA CITY      CLOUDY    69  68  96 SE5       30.03R
6HR MIN TEMP:  67; 6HR MAX TEMP:  69; 6HR PCP:  0.13;

MT. PLEASANT * CLOUDY    70  70 100 S7        30.03R FOG
MUSCATINE *    CLOUDY    72  68  88 S7        30.02R
QUAD CITIES    CLOUDY    70  67  90 VRB3      30.02R
6HR MIN TEMP:  68; 6HR MAX TEMP:  72; 6HR PCP:  0.01;

$$

IAZ062-063-075>077-085>089-095>099-271300-
   SOUTHEAST IOWA

CITY           SKY/WX    TMP DP  RH WIND       PRES   REMARKS
BURLINGTON     CLOUDY    70  70 100 S10       30.03R
6HR MIN TEMP:  68; 6HR MAX TEMP:  71; 6HR PCP:  0.14;

FAIRFIELD *    CLOUDY    70  68  94 VRB6      30.02R
FORT MADISON * CLOUDY    70  70 100 S6        30.05R FOG
KEOKUK *       CLOUDY    70  70 100 S6        30.03R
OSKALOOSA *    CLOUDY    67  66  97 S5        30.02R
CENTERVILLE *    N/A     68  68 100 CALM      30.04R
OTTUMWA        CLOUDY    68  66  93 S6        30.01R
6HR MIN TEMP:  66; 6HR MAX TEMP:  68; 6HR PCP: TRACE;

WASHINGTON *   CLOUDY    70  68  94 S7        30.02R
$$

ABBREVIATIONS USED IN REMARKS
   TC - TEMPERATURES IN CELSIUS
  WCI - WIND CHILL INDEX
   HX - HEAT INDEX
  VSB - VISIBILITY
$$





USA.gov is the U.S. government's official web portal to all federal, state and local government web resources and services.